Wind_Speed
47 48 48 50 52 53 53 54 54 53 54 53 54 54 54 54 54 56 57 56 55 52 51 51 50 49 49 51 51 51 53 58 61 62 62 62 61 62 62 61 61 62 63 62 61 60 59 58 57 57 57 57 57 56 56 56 56 57 57 57 56 56 55 55 53 52 52 52 52 52 52 52 53 53 54 54 54 55 55 55 55 56 56 55 54 53
51 51 52 54 55 55 57 58 57 56 56 56 57 57 57 57 58 59 60 60 60 57 56 56 55 54 54 54 54 54 54 57 61 62 63 64 64 65 65 64 64 65 66 66 65 65 63 62 61 60 59 59 59 59 59 59 59 59 59 60 59 59 58 58 56 55 55 54 55 56 56 56 56 56 56 56 56 57 57 57 57 58 58 57 57 56
52 52 55 56 55 56 57 57 57 56 55 55 55 56 56 57 58 58 59 60 60 59 59 59 58 58 59 60 60 58 57 58 59 61 62 63 64 66 67 67 67 68 68 68 68 68 68 67 66 64 63 62 62 62 62 62 61 61 61 62 62 62 62 61 60 59 58 57 57 58 58 59 59 59 59 58 58 59 59 59 59 60 60 60 60 59
51 52 55 56 54 54 54 54 55 55 54 53 54 55 55 57 58 57 58 59 59 59 59 59 58 58 60 63 64 64 63 62 61 62 63 63 64 66 67 68 69 70 71 71 71 71 71 71 70 69 68 67 66 66 66 65 64 64 64 65 65 65 65 65 64 63 62 61 61 60 60 60 61 61 62 62 62 61 61 61 62 62 63 63 62 62
50 53 55 54 53 52 52 54 56 56 56 56 57 58 58 59 58 57 58 58 58 59 58 58 56 55 56 60 63 65 65 64 65 66 66 66 66 67 68 70 71 71 72 73 73 73 73 73 73 73 73 72 71 70 69 69 68 68 68 68 68 68 68 68 68 67 66 65 65 64 63 62 63 63 64 65 65 65 64 64 64 65 65 65 65 65
50 53 54 53 52 51 51 55 58 58 58 60 62 62 61 61 60 59 58 58 57 57 57 57 56 54 53 56 61 65 64 62 64 68 69 69 69 69 70 71 73 73 73 74 74 75 75 75 75 76 76 76 76 74 74 73 73 72 72 71 71 71 71 71 71 71 70 69 69 68 67 66 65 66 66 67 67 68 68 67 67 67 68 68 68 68
50 52 53 54 54 53 55 58 60 60 61 64 66 66 64 63 63 62 61 59 57 56 56 56 58 56 52 52 59 64 64 62 63 67 70 71 72 72 73 74 75 75 74 75 75 75 75 76 77 77 77 78 79 79 78 78 77 77 76 75 75 74 74 74 74 74 74 73 72 72 70 69 69 68 69 69 70 70 71 71 70 70 70 70 71 72
52 52 54 56 57 58 60 62 63 64 65 66 69 69 68 67 65 65 64 63 60 58 56 57 62 60 51 51 58 61 61 61 61 65 68 69 72 75 76 77 78 79 78 78 77 76 75 74 76 77 77 77 79 80 81 81 81 81 80 79 79 79 78 78 78 78 78 77 76 76 75 74 73 72 72 72 72 73 73 73 73 73 72 72 73 74
57 56 57 59 61 63 65 67 68 69 69 70 72 73 73 71 70 69 68 66 64 61 57 60 67 64 53 52 58 60 61 61 61 65 68 69 71 75 78 79 81 83 83 83 82 81 79 76 76 76 77 77 78 79 80 81 82 83 84 84 83 83 83 83 83 82 82 81 81 81 80 79 77 77 76 76 76 76 76 76 76 76 75 75 75 75
60 59 62 63 65 67 69 71 73 73 74 75 77 77 77 76 75 74 72 70 69 64 61 66 70 67 58 55 59 62 65 65 65 69 71 72 73 75 78 80 82 85 87 88 88 87 85 83 80 79 78 78 78 79 80 80 81 82 83 85 85 86 87 87 88 87 87 86 85 85 85 84 82 81 80 80 80 79 79 79 80 80 79 79 78 78
63 63 65 66 68 70 72 75 76 77 78 79 80 80 81 81 80 79 76 75 74 69 68 72 73 71 65 62 64 67 68 70 71 74 76 76 76 77 79 80 82 85 88 90 91 91 91 90 87 85 84 83 82 81 81 80 81 81 82 83 84 85 87 89 90 91 91 91 90 90 90 89 88 87 85 85 84 83 83 83 83 83 83 83 82 82
67 68 69 70 72 74 76 78 80 81 82 83 84 84 85 85 84 83 81 81 79 75 76 78 77 76 73 70 73 74 74 76 78 80 82 82 81 82 82 83 83 85 87 90 92 93 94 95 94 92 90 89 89 87 86 85 84 84 84 84 84 84 85 87 89 91 93 93 94 94 94 94 93 92 91 90 89 87 87 87 88 88 87 87 86 86
71 72 73 74 75 78 80 82 85 87 87 88 89 89 90 89 89 88 86 86 85 82 83 83 81 81 79 78 80 81 81 83 84 86 87 87 87 87 86 86 86 87 88 90 93 94 95 96 97 96 95 95 95 94 93 92 91 90 90 89 89 89 88 88 89 90 92 94 95 96 96 97 97 97 97 96 96 95 94 93 93 93 93 92 92 91
74 75 77 78 80 81 84 86 89 90 91 93 94 94 94 93 93 93 91 91 90 89 88 87 87 87 85 85 86 86 87 90 92 94 94 93 93 92 91 91 90 90 91 92 94 96 97 97 98 98 98 98 100 100 100 99 98 97 97 96 95 95 94 93 93 93 94 95 96 97 97 96 97 98 98 99 99 100 100 100 98 98 98 97 97 96
77 77 79 82 83 85 87 90 92 92 94 96 97 97 96 96 98 98 96 96 96 96 94 92 92 92 91 90 90 91 93 96 99 100 100 99 97 96 96 95 95 94 94 94 96 97 98 99 100 100 101 101 102 103 104 105 105 104 104 103 102 101 101 100 100 99 99 99 99 100 101 100 99 98 98 98 98 99 100 100 100 100 101 101 101 102
81 80 81 84 86 88 90 93 94 95 97 99 99 99 99 99 100 101 100 101 102 103 100 97 97 97 95 95 94 94 97 101 103 104 104 103 101 100 99 98 98 98 98 98 98 98 99 100 101 102 104 104 105 105 106 107 109 109 110 110 110 109 108 107 106 106 106 105 105 105 105 106 106 105 104 103 102 101 101 101 101 101 102 103 104 105
86 85 84 86 89 90 92 95 97 98 99 100 101 101 101 102 102 103 104 104 106 108 105 102 101 101 100 98 97 99 102 105 107 107 106 105 103 102 101 100 100 100 100 100 100 101 101 101 102 103 104 106 107 107 108 109 110 112 113 114 115 115 115 115 114 113 112 112 112 111 111 111 111 111 111 110 110 109 108 107 106 106 106 106 106 106
92 91 90 89 91 93 93 96 99 100 101 102 103 103 104 104 104 104 106 107 109 112 110 107 105 103 102 101 101 104 107 109 110 110 108 107 104 102 101 101 101 101 102 103 103 104 105 106 106 106 106 107 108 109 110 111 112 113 115 116 117 118 119 120 120 120 119 119 118 118 118 118 117 117 117 116 116 116 115 114 114 113 112 112 112 111
97 97 95 93 94 96 96 97 100 102 104 104 105 106 106 106 105 106 109 111 113 115 114 111 108 105 104 104 106 109 111 112 112 112 111 108 105 102 101 100 101 101 103 105 107 108 109 110 110 110 110 110 110 111 112 113 114 115 116 118 119 120 122 123 124 125 125 126 126 125 125 124 124 124 124 124 123 123 122 121 120 120 119 119 119 118
102 101 99 96 97 99 99 100 102 106 107 108 108 109 109 109 110 112 114 115 116 117 117 115 112 108 106 108 111 113 115 115 114 114 113 111 108 105 103 101 100 101 102 104 106 109 111 113 114 114 114 114 114 114 115 116 117 118 119 120 121 123 124 125 126 127 128 129 131 132 132 132 131 130 130 130 130 130 129 128 127 126 126 125 125 125
106 106 104 102 101 103 103 104 107 109 110 110 111 111 112 114 116 118 118 117 118 119 119 118 117 114 111 111 114 116 117 117 116 115 114 112 109 107 105 103 102 101 101 102 104 106 109 111 113 115 116 117 118 118 119 119 120 121 122 123 125 126 127 128 129 130 130 131 133 134 136 137 137 137 136 136 136 136 136 136 135 134 133 132 132 131
110 110 110 108 106 106 107 109 111 112 112 113 114 115 117 118 121 121 120 118 119 121 121 121 121 119 116 116 117 119 120 120 119 118 115 113 111 108 107 105 103 102 101 101 101 103 105 107 109 112 114 116 118 119 120 121 122 123 124 125 127 128 130 131 132 133 133 134 135 136 137 138 140 141 142 142 142 142 142 141 141 141 140 140 139 138
113 114 114 112 109 108 109 110 112 114 115 116 117 118 119 120 121 121 121 120 120 121 121 123 124 123 120 120 121 122 122 122 122 120 117 115 112 110 108 105 104 102 101 100 100 101 102 104 106 108 110 112 114 116 118 119 121 122 123 124 125 127 129 131 132 134 135 136 137 137 138 139 141 142 143 144 146 146 147 147 147 147 146 146 145 145
115 116 115 113 111 108 108 109 112 115 117 118 119 119 119 120 120 121 121 121 122 123 122 124 126 124 122 123 125 125 125 125 123 121 118 115 113 111 108 106 105 103 102 102 101 102 102 103 104 105 106 108 110 111 113 115 117 118 120 121 122 124 125 127 129 131 133 135 137 138 139 140 141 143 144 145 146 147 149 150 151 151 151 152 151 151
118 118 118 116 114 111 109 109 112 115 118 119 120 120 120 120 121 122 123 124 125 125 124 126 127 125 125 127 127 127 128 127 125 122 119 116 113 111 109 107 106 105 104 104 104 103 104 104 104 104 105 106 108 109 110 112 113 115 117 118 119 120 122 123 125 126 128 130 132 134 136 138 140 141 143 145 147 148 149 150 152 153 153 154 155 156
120 120 119 119 118 116 113 112 114 116 118 119 119 120 120 121 122 123 125 127 128 128 128 129 128 127 128 129 129 130 130 129 127 123 120 116 114 111 110 109 107 106 106 106 106 106 106 106 106 105 105 106 107 108 109 110 111 113 114 116 117 118 119 120 121 123 124 125 126 128 130 132 134 136 138 140 143 145 147 149 151 153 154 155 156 157
122 122 121 121 121 120 117 116 117 118 119 120 120 120 120 121 123 124 126 128 129 131 131 130 129 131 132 131 130 132 133 132 129 125 121 118 116 114 112 111 109 108 108 108 107 107 107 107 107 107 107 107 107 107 107 108 109 110 112 113 115 116 117 118 119 120 121 122 123 124 125 126 127 129 131 133 135 137 140 142 145 148 151 155 157 158
124 124 123 123 123 122 121 120 121 121 122 122 122 121 121 121 123 125 127 129 130 133 133 132 132 135 134 132 132 134 135 133 130 126 123 121 118 116 115 113 112 111 110 110 109 109 109 109 109 108 108 108 107 107 107 107 107 108 110 111 112 113 114 115 116 117 118 120 121 122 123 123 124 125 126 127 128 130 132 134 136 139 143 147 151 155
127 126 125 125 125 124 124 124 124 125 125 125 124 123 122 122 123 125 128 129 131 134 135 134 136 137 136 133 134 135 134 133 130 128 126 123 120 118 116 115 114 113 112 111 110 110 110 110 109 109 108 108 108 107 107 107 107 107 108 109 110 111 112 113 114 115 116 117 119 120 121 122 123 123 123 124 124 125 126 128 129 131 134 136 140 144
129 128 127 128 127 126 126 126 127 128 128 127 126 125 123 123 124 127 129 130 133 136 137 138 139 138 136 135 136 135 133 132 131 129 127 124 122 120 118 116 115 113 112 111 110 110 109 109 108 108 108 107 107 107 106 106 106 107 107 107 108 108 109 109 110 112 113 115 116 118 119 120 121 122 122 123 123 123 124 124 125 126 127 129 131 133
131 130 130 130 129 128 128 129 131 132 131 130 127 125 124 125 128 130 131 132 134 137 139 140 141 138 136 136 137 135 133 131 129 127 125 123 121 119 117 115 114 112 111 110 110 109 109 108 107 107 106 105 105 104 104 104 104 105 105 105 105 105 105 106 107 108 109 111 112 114 115 116 117 119 120 121 121 122 122 122 123 123 123 124 125 126
132 131 131 132 132 131 130 131 133 134 134 132 127 124 125 129 132 133 133 135 137 139 140 139 138 137 137 137 136 134 132 130 127 124 121 119 117 116 115 113 111 110 109 108 107 107 107 106 105 104 103 103 102 102 102 102 102 102 102 102 102 102 102 102 102 103 104 105 106 107 109 110 111 112 114 115 117 117 118 119 120 120 121 122 122 123
132 132 133 134 135 133 132 133 135 137 136 131 127 127 130 133 134 135 137 138 139 139 138 136 135 136 137 136 134 132 129 126 122 119 116 114 113 112 110 108 108 107 107 106 105 104 104 103 102 101 100 100 100 100 100 100 100 100 100 100 100 100 100 100 100 100 101 101 102 102 103 103 104 105 107 109 110 111 112 113 114 115 116 117 118 119
134 134 135 136 137 136 135 136 138 139 136 131 129 132 134 136 137 138 139 138 137 137 136 135 135 135 135 133 130 127 123 119 116 113 111 111 110 108 106 105 105 105 105 104 103 102 102 101 100 99 98 98 99 99 99 98 98 98 99 99 99 99 99 99 99 99 100 100 100 100 100 100 100 101 102 103 104 105 106 108 109 110 111 112 112 113
135 136 137 138 139 138 137 139 140 139 135 132 133 135 136 138 140 140 138 135 134 134 134 134 134 133 131 128 123 119 115 112 110 108 107 107 106 104 103 103 103 103 103 102 101 101 100 99 98 97 97 98 99 98 98 97 96 96 96 96 96 96 96 97 97 97 98 98 98 98 98 98 98 99 99 99 100 100 101 103 104 105 106 107 108 109
137 138 138 139 140 140 140 140 141 139 136 134 135 136 138 139 139 137 135 132 130 131 130 130 130 127 124 120 115 112 110 107 105 104 104 105 103 101 100 100 101 101 101 101 100 99 99 98 98 98 98 98 97 96 95 94 94 93 93 93 93 93 93 94 94 94 95 95 96 96 96 97 97 97 97 96 97 97 98 99 99 100 101 102 103 105
139 140 140 141 141 141 141 141 140 139 136 134 135 137 138 137 135 133 132 128 125 123 123 122 121 118 114 112 109 107 105 103 100 100 102 102 101 100 99 99 100 100 101 101 100 99 99 99 98 98 97 96 95 94 93 92 91 91 91 90 90 90 90 91 91 91 92 92 93 94 94 95 95 94 94 95 95 95 95 96 96 96 97 98 99 100
141 141 142 143 143 142 142 142 139 136 133 131 133 135 134 133 131 130 127 121 116 114 114 113 111 110 108 106 104 102 101 98 96 97 100 100 99 99 99 99 100 100 100 100 100 100 99 98 98 97 96 95 93 92 92 91 91 90 89 89 88 88 88 88 88 89 89 90 90 91 92 92 92 91 92 93 93 93 93 93 94 94 95 95 94 94
142 142 143 143 142 141 141 140 136 133 130 129 131 132 131 128 125 122 119 113 108 108 108 106 104 104 104 102 100 99 97 96 94 95 98 98 99 100 100 100 100 100 100 100 100 100 99 98 97 96 95 94 93 92 91 91 90 89 89 88 88 87 87 87 87 88 88 89 89 90 90 89 89 89 90 90 91 91 91 92 93 93 93 92 92 91
141 141 141 141 140 139 138 136 133 130 127 127 129 129 125 119 116 114 112 108 105 104 102 100 100 101 100 99 98 97 96 95 94 95 97 98 99 99 99 99 99 99 99 99 98 98 98 98 97 95 94 93 92 91 91 90 89 89 88 88 87 87 87 87 87 87 88 89 89 89 89 88 88 88 89 89 89 90 91 91 91 91 91 91 91 90
138 138 138 137 136 135 135 134 130 124 121 121 123 121 115 112 111 110 109 106 104 101 99 98 98 98 98 98 97 96 95 94 95 95 97 98 98 98 98 98 98 98 98 97 97 96 96 96 95 94 93 92 91 91 90 90 89 88 88 87 87 86 86 86 87 87 88 89 89 89 88 88 88 88 88 88 88 89 90 90 90 90 90 90 90 89
135 134 133 132 131 131 130 127 122 115 112 113 115 113 110 109 109 108 106 104 102 100 98 98 97 96 97 97 97 96 95 95 96 96 96 97 97 97 97 97 97 96 96 95 95 95 94 94 94 93 92 91 91 91 90 90 89 88 87 87 86 86 86 86 87 87 88 88 88 88 88 88 88 88 88 88 88 88 89 89 90 89 89 89 88 88
132 131 130 127 126 124 120 116 113 109 107 107 109 109 109 109 107 105 104 103 101 99 98 97 95 95 95 95 96 96 95 95 95 95 96 96 96 96 96 95 95 94 94 94 93 93 93 93 93 92 91 90 90 90 90 89 88 88 87 87 87 87 86 86 87 87 87 87 87 87 87 87 87 87 87 88 88 88 88 89 89 88 88 87 87 87
127 126 124 119 115 114 111 108 108 107 104 104 107 109 109 108 106 104 103 101 100 98 97 95 94 93 93 93 94 94 94 94 95 95 96 97 97 96 95 94 93 93 92 92 91 91 91 91 91 91 90 90 89 89 89 89 88 87 87 86 86 86 85 85 86 86 86 85 85 85 85 85 85 86 86 87 87 87 87 88 87 87 87 87 86 87
118 117 114 110 106 106 106 105 106 106 104 104 106 108 108 109 106 104 102 100 98 96 95 93 92 91 90 90 90 91 92 93 94 95 96 96 96 96 95 93 92 92 91 91 90 90 90 90 89 89 89 89 89 88 88 87 86 85 85 85 84 84 84 84 84 84 83 83 83 83 83 82 83 85 85 86 86 86 86 86 85 86 86 86 86 86
110 108 107 103 101 103 104 104 105 107 106 105 106 107 108 108 105 102 100 97 95 94 93 92 90 89 88 88 89 90 91 91 91 91 92 93 93 93 93 92 91 90 90 90 89 89 88 88 88 88 88 88 87 87 86 85 84 83 83 83 83 83 82 82 82 82 81 81 81 81 80 80 82 83 84 84 84 84 83 83 83 83 84 84 84 85
104 104 103 101 100 102 104 104 105 107 107 106 106 106 107 106 102 100 98 96 94 93 92 91 91 90 89 88 89 89 89 89 88 88 89 89 89 90 90 89 89 88 87 87 87 87 87 86 86 86 86 87 86 86 85 85 83 82 82 82 82 82 82 82 81 81 81 81 80 79 79 79 81 82 82 83 83 82 82 81 81 81 81 81 82 83
101 100 100 100 101 103 103 103 105 107 107 105 104 104 104 103 101 98 96 95 94 94 93 93 92 92 90 89 88 88 88 88 88 88 88 87 87 86 87 87 86 86 85 85 85 85 85 85 85 85 86 86 85 85 84 83 82 81 80 80 81 80 80 81 81 81 81 81 79 79 79 80 81 81 81 81 81 81 80 80 80 79 79 79 79 80
99 98 99 101 103 102 102 103 106 108 107 102 100 100 100 99 98 97 96 95 95 95 94 93 93 92 91 89 88 88 88 88 88 88 87 87 86 85 84 84 84 84 84 84 84 83 83 83 83 83 84 83 83 82 81 81 80 79 78 78 78 78 78 79 79 79 80 79 78 78 79 80 80 79 79 79 79 79 79 78 78 78 78 77 78 78
97 97 99 103 104 102 100 102 106 108 104 99 97 97 96 95 96 97 97 96 95 94 93 93 93 92 90 89 89 89 88 88 88 88 87 86 85 84 83 83 83 83 83 83 83 82 81 81 81 81 81 80 79 78 77 77 77 76 75 75 76 76 76 76 76 77 77 76 76 76 78 78 77 77 77 77 76 76 77 77 77 77 76 76 76 76
95 97 100 104 105 102 100 101 105 105 102 97 94 94 94 94 96 97 96 94 93 92 92 92 91 90 89 89 89 89 89 89 88 87 86 85 84 83 83 82 82 82 82 82 81 80 79 78 78 78 78 77 76 75 74 74 74 73 72 73 73 73 73 73 73 73 74 73 73 74 75 74 74 74 74 74 73 73 73 73 75 76 76 75 73 74
Wind_Direction
278 278 279 279 279 280 281 281 280 280 280 280 279 279 278 278 278 278 278 278 276 275 274 273 272 272 272 273 273 274 276 276 276 277 278 278 278 277 277 276 276 276 275 274 272 269 267 267 267 268 269 270 271 272 272 272 273 274 275 276 276 276 275 275 275 275 276 276 276 275 275 274 273 273 273 273 273 273 273 272 272 272 272 271 270 269
278 279 278 277 278 279 281 281 282 282 282 282 282 282 282 280 279 278 279 278 278 277 276 274 274 274 273 272 272 272 273 273 273 274 275 276 276 275 275 275 275 275 275 275 274 272 270 268 267 267 267 268 268 269 269 269 269 271 273 274 275 275 274 274 274 274 274 275 276 276 275 275 274 273 272 272 272 272 272 272 272 273 272 272 271 270
277 278 278 277 278 279 281 282 283 284 284 284 284 284 283 282 280 280 280 279 279 278 276 275 275 275 275 274 273 272 271 271 272 274 274 275 275 275 275 274 273 273 273 273 273 273 272 270 268 267 266 266 266 266 267 267 268 268 269 271 272 272 272 271 271 272 271 272 273 274 274 273 272 272 271 270 270 271 271 272 273 272 272 272 271 270
276 276 276 277 279 281 282 284 285 286 286 287 288 287 286 283 281 280 280 279 279 278 276 275 275 274 275 274 273 272 271 271 272 273 273 273 273 273 274 274 274 272 272 272 272 272 272 271 269 268 266 265 265 265 265 265 265 266 266 267 268 269 269 269 269 269 269 269 271 273 273 272 271 270 270 269 269 269 269 270 271 271 271 271 271 271
278 277 278 280 281 283 286 288 289 290 291 292 293 294 292 289 285 282 280 278 278 277 276 275 274 274 274 275 274 272 270 271 271 272 272 273 273 272 272 272 273 273 272 272 272 271 271 271 270 269 267 266 264 264 264 264 264 264 264 264 265 266 267 268 268 267 267 267 269 271 271 271 270 270 269 269 269 268 268 268 268 269 269 270 270 270
280 280 283 285 286 287 290 292 293 294 296 298 299 300 298 296 293 289 285 281 279 277 276 276 274 271 271 274 275 274 272 271 270 270 270 270 271 271 271 271 271 271 272 272 272 272 272 271 270 269 268 266 265 264 264 264 263 263 263 263 263 264 264 265 265 266 265 265 266 268 269 269 269 269 269 269 268 268 268 268 267 267 267 267 267 268
280 283 287 290 291 293 293 293 294 296 297 299 301 301 301 300 297 295 291 287 284 280 278 278 275 270 269 274 276 276 275 273 271 270 270 270 269 269 269 269 270 270 270 270 270 271 272 272 271 270 269 267 266 265 264 264 263 263 262 262 262 262 262 262 262 263 263 263 263 264 265 266 266 266 266 267 267 268 268 268 268 267 266 265 265 265
281 284 288 291 293 295 294 295 296 297 297 297 298 299 300 300 299 297 294 292 289 285 283 282 278 271 267 271 274 275 277 276 275 274 274 273 271 269 268 268 268 269 269 269 268 268 268 270 271 271 270 269 267 266 265 265 264 263 263 262 261 261 261 260 260 261 261 261 261 261 262 263 264 264 264 265 265 266 266 267 267 267 266 265 264 263
282 286 289 292 294 295 296 297 298 298 298 297 297 298 299 299 299 298 297 295 292 289 289 288 283 277 272 270 271 272 273 275 275 277 279 279 277 274 270 267 267 267 266 266 266 266 265 265 266 268 269 269 268 267 266 265 265 264 264 263 263 262 261 260 260 260 260 260 259 259 259 260 261 261 262 263 263 264 265 265 265 265 265 265 264 263
284 288 291 293 294 295 297 298 299 299 298 298 297 298 298 298 299 299 298 297 295 293 293 291 287 285 282 279 278 276 274 273 273 274 276 278 280 279 276 272 268 266 266 265 264 264 263 262 262 263 264 265 266 266 266 266 265 265 265 264 264 264 263 262 261 260 260 259 259 258 258 258 258 259 259 260 261 262 263 264 265 265 264 264 263 262
288 290 291 292 293 295 297 297 298 299 298 298 298 298 298 298 299 299 299 299 297 297 297 293 291 291 289 289 289 284 281 281 279 278 278 277 276 275 275 273 270 268 267 266 265 264 263 262 260 259 260 261 262 263 263 264 264 264 264 264 264 264 264 264 264 263 262 262 260 259 259 258 258 258 258 258 259 260 262 262 263 263 264 263 263 262
289 290 290 291 293 294 295 296 297 298 298 299 299 298 298 298 299 299 300 300 299 300 299 297 296 296 295 296 294 290 288 287 285 284 283 280 277 273 270 269 269 268 267 266 266 265 264 263 261 259 258 259 260 260 260 260 260 261 261 261 261 262 262 263 263 264 264 264 263 262 261 260 259 258 258 258 258 259 260 261 261 261 262 262 262 262
290 290 291 291 292 292 294 294 295 296 297 298 299 299 299 299 299 300 300 300 301 302 301 300 299 298 298 297 295 293 293 293 292 290 287 284 281 278 275 271 268 266 265 264 264 264 264 263 263 261 259 258 258 258 258 258 258 258 258 258 258 259 259 259 260 261 262 263 263 263 263 263 262 261 260 259 259 259 260 261 261 261 260 260 260 260
291 291 292 292 292 292 292 293 294 295 296 297 298 298 299 300 299 299 300 301 302 303 302 301 301 300 299 297 295 296 296 297 296 295 292 289 286 283 282 279 275 271 267 265 264 263 262 262 262 262 261 259 259 258 258 257 257 257 257 257 257 257 256 256 256 257 258 259 260 261 262 262 263 263 263 262 261 261 261 261 260 260 260 259 259 259
292 293 293 292 292 292 292 292 294 295 295 296 297 298 299 299 299 299 300 302 302 302 302 302 301 300 298 297 297 297 297 297 296 295 294 292 290 287 285 283 280 277 274 271 267 265 263 262 261 261 260 259 258 258 258 258 257 257 256 256 257 257 256 256 255 255 255 256 257 257 258 258 259 260 261 261 262 262 262 262 261 260 259 258 258 258
294 294 293 292 292 292 292 293 294 295 295 295 297 297 298 298 298 300 301 302 302 301 301 302 301 300 298 298 298 297 296 295 295 295 294 293 291 289 286 284 282 280 278 276 274 271 268 265 262 261 260 259 258 257 258 258 258 258 257 257 257 256 256 256 255 255 254 254 254 254 255 256 256 256 257 257 258 259 259 260 260 260 260 259 258 258
295 294 294 293 292 292 293 293 294 294 295 296 296 297 297 297 299 300 300 300 300 300 301 301 300 299 298 298 298 296 294 295 294 294 294 293 291 288 286 284 282 281 279 278 277 275 273 270 267 264 261 260 258 258 257 257 258 258 259 258 258 257 257 257 256 256 255 255 254 254 254 254 254 254 254 255 255 255 256 256 257 258 258 258 258 258
295 295 294 294 293 293 293 293 294 294 295 295 296 296 297 298 299 299 298 299 299 299 299 299 298 298 298 297 296 294 293 294 294 294 294 293 290 288 285 283 281 279 278 276 276 275 274 273 271 269 266 263 260 259 257 257 257 258 258 259 259 258 258 258 257 257 256 256 255 254 254 254 253 253 253 253 253 254 254 254 254 254 255 255 256 256
295 295 294 295 294 294 294 294 295 295 295 295 296 297 298 298 297 297 297 297 298 297 297 297 297 297 297 296 295 294 294 295 295 295 295 293 291 288 285 282 279 277 275 274 273 272 272 271 270 270 269 267 265 262 260 258 257 257 258 258 259 259 258 258 258 258 257 257 256 256 255 254 254 254 254 253 253 253 253 253 253 253 253 253 254 254
295 295 296 296 296 295 296 296 296 296 296 297 297 298 297 296 296 295 296 296 296 296 296 296 296 296 296 295 295 295 296 296 297 296 296 294 292 290 287 284 281 278 276 274 272 271 271 270 270 269 269 268 267 266 264 262 260 258 258 258 258 258 258 258 258 258 258 257 257 256 256 256 255 255 254 254 254 254 254 253 253 253 253 253 253 253
296 297 297 297 297 297 297 297 297 297 297 297 297 296 295 295 295 294 295 296 296 296 296 297 297 297 296 296 296 296 296 296 296 296 295 294 293 291 289 286 284 281 278 276 274 272 271 271 270 270 269 269 268 267 267 265 264 262 261 260 259 259 259 259 259 259 258 258 258 257 257 257 256 256 255 255 255 254 254 254 254 254 253 253 253 253
297 297 297 297 297 297 297 297 296 296 295 294 294 293 293 293 293 294 294 295 295 295 296 296 296 297 297 297 296 296 296 296 296 295 295 294 293 291 290 288 286 284 281 279 277 275 274 272 271 270 270 269 269 268 268 267 266 265 264 263 262 262 261 261 260 260 259 259 258 258 257 257 257 257 256 256 256 255 255 255 255 255 255 254 254 254
296 295 295 295 295 295 294 294 293 292 291 290 290 290 291 291 292 293 294 294 294 294 295 296 295 296 297 296 296 296 296 295 295 295 294 294 294 292 291 289 287 286 284 282 280 278 276 274 273 272 271 270 270 269 269 268 268 267 266 265 265 264 263 263 262 262 261 261 260 259 258 258 257 257 257 257 256 256 256 256 256 256 256 255 255 255
293 292 292 292 292 291 291 290 290 289 289 289 289 290 291 291 292 293 293 294 294 294 295 295 294 295 296 295 295 295 295 295 294 294 294 294 294 292 291 289 288 286 285 283 281 279 278 276 275 273 273 272 271 271 270 270 269 269 268 268 267 266 265 264 264 263 262 262 261 261 260 259 258 258 257 257 257 257 257 257 257 257 256 256 256 256
291 291 291 291 291 290 290 290 289 288 289 289 289 290 291 292 292 293 293 294 294 294 294 293 293 295 295 294 294 295 294 294 294 294 294 293 292 291 290 288 287 286 285 284 282 281 279 278 276 275 274 273 272 271 271 270 270 270 269 269 268 268 267 267 266 265 265 264 263 263 262 261 260 260 259 258 257 257 257 257 257 257 257 257 257 257
290 290 291 291 291 291 291 290 289 289 289 289 290 290 291 292 292 293 294 294 294 294 293 293 294 294 293 293 294 295 294 294 294 294 293 292 291 290 289 288 287 286 285 284 283 282 280 279 278 276 275 274 273 272 271 271 270 270 270 269 269 269 268 268 267 267 267 266 265 265 264 263 263 262 262 261 260 259 258 258 257 257 257 258 258 258
290 290 290 290 291 291 292 291 290 289 289 289 290 290 291 292 293 293 294 294 294 293 292 293 294 293 293 295 296 295 294 294 294 293 293 292 292 291 289 288 287 286 285 284 283 282 281 280 279 278 276 275 274 273 272 271 270 270 269 269 269 268 268 268 268 268 268 267 267 267 266 266 265 264 264 263 262 262 261 260 259 258 258 257 257 258
290 290 291 291 291 292 292 291 290 290 290 290 290 291 291 292 292 293 293 293 292 291 291 292 293 293 294 295 295 294 294 293 293 293 293 293 292 291 290 289 288 287 286 285 284 283 282 281 280 279 279 277 276 275 274 272 271 271 270 269 269 269 268 268 268 268 268 268 268 267 267 267 267 266 266 265 264 264 263 262 261 260 259 258 258 257
290 290 291 291 291 292 292 291 290 290 290 290 291 291 292 292 293 292 291 290 290 290 291 293 293 293 294 294 293 292 292 292 293 293 293 292 291 290 289 288 288 287 286 285 284 283 283 282 281 281 280 279 278 277 275 274 273 272 271 271 270 270 269 269 268 268 268 268 267 267 267 267 267 267 266 266 266 265 265 264 264 263 262 261 260 259
290 291 291 291 291 291 291 290 290 289 290 290 291 292 293 293 292 290 289 289 290 291 292 293 293 292 293 293 292 291 292 292 292 292 292 291 291 290 289 289 288 287 286 286 285 285 284 283 282 281 280 279 278 278 277 276 276 275 274 273 272 271 271 270 269 269 268 268 267 267 267 267 267 267 267 266 266 266 266 266 265 265 264 264 263 262
291 291 291 291 290 290 290 290 289 289 290 290 291 293 293 292 290 288 289 290 291 291 292 292 291 292 292 291 291 291 291 291 291 291 291 291 290 290 289 288 288 288 288 287 286 285 284 283 283 282 281 281 280 280 279 278 277 276 276 275 274 273 272 271 270 270 269 269 268 268 267 267 267 267 267 267 267 267 267 266 266 266 266 265 265 264
291 290 290 290 289 290 290 289 289 289 290 291 293 293 291 289 288 289 290 290 290 290 290 290 291 291 291 290 290 291 291 291 291 290 290 290 289 289 289 289 289 288 287 286 285 284 283 283 283 282 282 282 281 281 280 279 278 278 277 277 276 275 274 273 273 272 271 270 269 269 268 268 268 268 268 267 267 267 267 267 267 266 266 266 266 265
289 289 289 289 289 289 289 289 288 289 289 291 293 291 289 288 289 290 290 290 290 290 290 290 290 290 290 290 290 290 290 290 290 290 290 290 289 289 289 289 288 287 286 285 285 284 284 283 283 283 283 282 282 281 280 280 279 279 279 278 278 278 277 277 276 275 274 273 272 271 270 270 269 268 268 268 267 267 267 267 267 267 267 266 266 266
289 289 289 288 289 289 289 288 288 288 290 291 291 289 289 289 289 289 289 289 290 290 290 290 289 289 289 290 290 289 289 290 290 290 290 290 290 289 289 288 287 287 286 285 285 284 284 284 283 283 283 282 281 280 280 280 280 280 280 280 279 279 279 278 278 277 277 276 275 274 273 272 271 270 269 268 268 268 267 267 267 267 267 266 266 266
288 288 288 288 288 288 288 288 288 289 290 290 289 289 289 289 289 288 289 289 289 289 289 289 289 289 289 289 289 289 290 290 291 291 290 289 289 289 288 288 287 286 285 285 285 284 284 284 284 283 282 281 280 280 280 281 281 280 280 280 280 279 279 279 278 278 277 277 276 276 275 274 273 272 271 271 270 269 268 268 267 267 267 266 266 266
287 287 287 287 287 287 287 287 288 289 289 289 289 289 289 288 288 288 288 288 288 289 289 289 288 288 288 288 289 290 290 291 291 291 290 289 289 288 288 287 287 286 285 285 285 285 285 284 284 283 282 281 281 282 282 282 281 281 280 280 279 279 279 278 278 278 277 277 277 276 276 275 274 274 273 272 272 271 270 269 268 268 267 267 266 266
287 287 287 287 287 287 287 287 288 288 288 289 289 288 288 288 288 288 288 288 288 288 288 287 286 287 288 289 289 290 290 290 290 290 289 288 288 288 288 287 286 286 286 286 286 286 285 285 284 284 283 283 283 283 283 283 282 281 281 280 279 279 278 278 277 277 276 276 276 276 275 275 274 274 274 274 273 272 272 271 270 270 269 267 267 266
286 286 286 286 286 287 287 287 288 288 289 289 288 288 288 288 288 288 287 287 287 287 286 286 287 288 289 289 289 289 290 290 290 289 289 288 288 288 287 286 286 286 286 286 286 285 285 285 284 284 284 285 285 285 284 284 283 282 282 281 280 279 279 278 277 277 276 276 275 275 274 274 274 274 274 274 274 273 273 273 272 271 270 269 269 268
286 286 286 286 286 287 287 287 288 288 289 289 289 288 288 288 288 287 287 287 287 286 286 287 288 288 288 289 289 290 290 290 290 289 288 288 287 287 286 286 286 286 286 286 285 285 285 285 285 286 286 286 286 286 285 285 284 283 283 282 281 280 280 279 278 278 277 276 276 275 275 274 274 274 274 274 274 274 273 273 272 272 271 271 271 270
285 285 285 285 286 286 287 288 288 289 289 290 289 289 288 288 287 286 286 287 287 286 287 288 289 288 289 289 290 290 290 290 289 288 287 286 286 286 286 286 285 285 285 285 285 286 286 287 287 287 287 287 286 286 285 285 284 283 283 282 281 281 280 280 279 279 278 277 276 276 276 275 275 274 274 274 274 273 273 272 272 272 272 272 271 271
284 284 284 285 286 287 287 287 287 288 289 289 288 288 288 287 286 286 286 287 287 288 289 289 289 289 290 290 290 290 290 289 288 287 286 286 286 286 285 285 284 285 285 286 287 287 287 287 288 287 287 287 287 286 285 285 284 283 282 282 281 281 280 280 279 278 278 277 277 277 277 276 276 275 275 274 273 273 273 272 272 272 272 272 271 271
283 284 284 286 286 286 286 286 287 288 288 287 287 287 287 286 286 286 287 288 289 290 290 289 290 291 291 291 291 290 289 288 288 287 286 286 286 285 285 285 286 287 287 288 288 288 288 288 287 287 287 287 286 286 285 284 284 283 283 282 282 281 281 280 279 279 278 278 278 277 277 276 276 275 275 274 274 273 273 273 273 272 272 272 272 272
284 284 285 286 286 286 286 287 287 287 287 286 286 286 285 285 285 286 287 288 289 289 290 290 291 291 290 290 289 289 288 288 287 287 286 286 286 286 286 287 288 288 288 288 288 288 288 287 287 287 287 286 285 285 285 285 284 284 283 283 283 282 281 281 280 280 279 279 278 278 277 277 276 276 275 274 274 274 273 273 273 273 273 273 272 272
284 285 285 285 285 286 287 287 287 286 286 286 285 285 285 286 286 287 288 288 289 290 290 290 290 290 289 289 289 289 289 289 288 288 288 287 287 287 288 288 288 287 287 287 287 287 287 287 287 286 286 286 285 285 285 285 284 284 284 283 283 282 282 281 280 280 280 279 279 278 278 277 277 276 276 275 275 274 274 274 274 274 274 273 273 272
284 284 284 285 286 286 286 286 286 285 285 284 284 285 286 286 286 287 288 289 290 290 290 290 289 288 288 288 288 287 287 287 287 287 288 288 288 288 288 288 288 288 288 287 287 287 287 287 287 286 286 286 286 285 285 284 284 284 284 283 283 282 281 281 280 280 279 279 279 278 278 278 277 277 276 275 275 275 275 275 275 275 275 274 274 273
283 284 284 285 286 286 285 285 285 284 284 285 285 285 285 286 287 289 289 290 291 290 290 289 289 288 287 287 286 286 286 286 286 286 286 286 286 287 287 288 288 288 288 288 288 288 288 288 287 287 287 287 286 286 285 285 285 284 284 283 283 282 282 281 281 280 280 279 279 278 278 278 278 277 277 276 276 276 276 276 276 276 275 275 274 274
283 283 284 285 285 284 284 284 284 284 284 285 285 285 286 288 290 291 291 292 292 291 291 291 290 289 289 288 287 286 286 285 285 284 284 284 285 286 286 287 287 287 288 288 288 288 288 288 288 288 287 287 286 286 286 286 285 285 284 284 283 283 282 282 282 281 281 280 280 280 280 279 279 278 278 278 278 278 278 277 277 276 276 275 275 274
282 283 284 285 284 283 283 284 284 283 283 283 285 287 288 290 291 292 293 293 292 292 291 291 290 290 290 289 288 287 287 287 286 286 285 285 286 286 286 287 287 288 288 288 288 288 288 288 288 288 287 287 287 287 287 287 286 286 285 284 284 283 283 283 282 282 282 282 282 282 281 280 280 280 280 280 280 280 280 280 279 278 277 276 276 275
283 284 284 283 282 282 283 283 282 282 282 284 286 287 288 290 291 292 292 292 291 291 291 291 291 290 290 289 289 289 288 288 288 287 287 287 287 288 288 288 288 289 289 289 289 289 289 289 288 288 288 287 287 288 288 287 287 286 286 285 284 284 283 283 282 282 282 282 282 282 281 281 281 281 281 282 282 282 282 281 280 280 279 278 277 277
283 284 283 282 281 282 282 282 282 282 284 286 287 287 289 290 291 290 290 290 291 291 291 290 290 290 291 291 290 290 289 289 289 289 289 289 289 290 290 290 290 290 290 290 290 290 290 289 289 288 288 287 287 287 287 287 286 286 286 285 284 284 283 283 283 283 282 282 282 282 281 281 282 282 282 282 282 282 282 282 281 280 279 279 278 278
283 282 281 280 281 281 281 281 281 283 285 287 288 288 289 289 288 288 289 290 290 290 289 289 290 291 291 291 290 290 289 289 289 290 290 291 291 291 291 291 290 290 290 290 290 290 290 289 288 288 287 287 287 287 287 286 286 286 285 285 284 284 283 283 283 283 283 283 282 281 281 282 282 282 282 282 281 281 282 282 282 281 280 278 278 278
Height
10746 10746 10745 10742 10740 10740 10739 10738 10740 10741 10741 10742 10741 10741 10742 10742 10740 10737 10735 10736 10736 10740 10740 10738 10739 10738 10736 10734 10732 10731 10730 10725 10721 10718 10717 10717 10717 10716 10716 10715 10714 10713 10712 10711 10711 10710 10711 10711 10711 10711 10710 10709 10709 10709 10709 10709 10708 10707 10707 10707 10707 10707 10706 10705 10704 10704 10704 10704 10704 10704 10704 10703 10703 10702 10702 10702 10701 10700 10700 10700 10700 10699 10700 10702 10703 10703
10740 10741 10738 10735 10735 10735 10733 10732 10734 10735 10734 10734 10734 10735 10735 10734 10733 10731 10730 10729 10730 10733 10733 10731 10732 10732 10729 10727 10726 10726 10725 10721 10717 10715 10713 10712 10710 10709 10708 10708 10707 10705 10703 10703 10702 10702 10702 10703 10704 10704 10703 10702 10702 10701 10701 10701 10701 10700 10700 10700 10700 10700 10700 10698 10697 10697 10697 10697 10696 10696 10695 10695 10695 10695 10695 10694 10694 10693 10693 10692 10693 10692 10692 10693 10694 10695
10736 10734 10729 10728 10730 10730 10728 10726 10726 10727 10727 10727 10727 10728 10728 10726 10725 10726 10724 10723 10723 10724 10725 10725 10726 10725 10721 10717 10717 10718 10717 10715 10713 10710 10708 10706 10704 10701 10700 10700 10700 10698 10696 10695 10694 10694 10694 10694 10695 10695 10695 10695 10694 10693 10693 10693 10693 10693 10693 10693 10692 10692 10692 10691 10690 10689 10689 10689 10689 10688 10687 10687 10687 10686 10686 10686 10686 10686 10685 10685 10685 10684 10684 10684 10685 10686
10730 10727 10721 10722 10724 10724 10723 10720 10719 10718 10719 10719 10718 10719 10719 10717 10718 10720 10717 10716 10717 10717 10717 10718 10719 10719 10714 10708 10707 10709 10709 10710 10708 10704 10701 10700 10697 10694 10693 10692 10691 10689 10688 10687 10686 10686 10685 10685 10685 10686 10686 10686 10686 10685 10685 10685 10685 10685 10685 10685 10684 10684 10684 10683 10682 10682 10681 10681 10681 10680 10680 10679 10678 10677 10677 10677 10677 10678 10678 10678 10677 10676 10675 10675 10675 10676
10723 10718 10715 10717 10718 10718 10717 10714 10711 10711 10712 10711 10710 10710 10709 10708 10709 10711 10710 10709 10710 10709 10709 10710 10712 10713 10708 10700 10696 10697 10702 10705 10702 10696 10692 10692 10690 10688 10687 10684 10681 10681 10681 10679 10678 10677 10677 10676 10676 10676 10676 10676 10677 10677 10677 10676 10676 10676 10676 10675 10676 10675 10675 10675 10674 10673 10673 10673 10672 10672 10672 10671 10670 10669 10668 10668 10668 10668 10669 10669 10669 10668 10667 10667 10666 10666
10717 10710 10709 10710 10711 10712 10712 10708 10704 10704 10705 10703 10700 10700 10700 10699 10698 10699 10700 10701 10702 10702 10701 10701 10703 10706 10703 10697 10688 10686 10693 10698 10695 10687 10682 10682 10681 10680 10678 10675 10673 10673 10673 10671 10669 10668 10667 10666 10666 10666 10666 10666 10667 10667 10667 10667 10667 10667 10666 10666 10666 10666 10666 10665 10665 10664 10664 10664 10663 10663 10663 10662 10662 10661 10660 10659 10659 10658 10659 10659 10659 10660 10660 10659 10658 10658
10710 10705 10703 10703 10702 10703 10703 10701 10699 10699 10699 10696 10692 10691 10691 10690 10689 10689 10689 10690 10693 10694 10694 10693 10691 10694 10699 10694 10683 10678 10683 10688 10687 10679 10673 10672 10672 10670 10668 10666 10664 10663 10663 10662 10661 10660 10658 10657 10655 10655 10656 10656 10656 10657 10657 10657 10656 10657 10656 10657 10657 10656 10656 10656 10655 10655 10654 10654 10654 10653 10653 10653 10652 10652 10651 10650 10650 10649 10649 10648 10649 10649 10650 10650 10650 10649
10702 10700 10698 10696 10695 10694 10692 10691 10692 10692 10692 10690 10685 10682 10682 10681 10680 10680 10679 10680 10683 10685 10688 10685 10676 10680 10694 10691 10679 10675 10675 10677 10677 10670 10665 10664 10663 10661 10659 10658 10654 10652 10652 10650 10650 10651 10650 10649 10646 10645 10645 10645 10645 10645 10646 10646 10645 10646 10646 10646 10646 10646 10646 10645 10645 10645 10644 10644 10644 10643 10643 10642 10642 10642 10641 10641 10640 10640 10639 10639 10638 10639 10639 10640 10640 10639
10694 10694 10691 10689 10688 10685 10683 10681 10681 10682 10682 10681 10677 10674 10673 10671 10670 10670 10669 10670 10671 10675 10681 10674 10661 10666 10685 10685 10675 10672 10668 10667 10667 10661 10656 10655 10653 10651 10649 10648 10645 10641 10639 10639 10638 10638 10640 10640 10639 10636 10635 10634 10633 10633 10634 10634 10634 10634 10634 10634 10634 10634 10634 10634 10634 10634 10633 10633 10633 10632 10632 10631 10631 10631 10630 10630 10630 10629 10629 10628 10628 10628 10629 10629 10629 10629
10686 10687 10683 10682 10680 10677 10675 10672 10671 10671 10671 10670 10667 10666 10663 10661 10660 10658 10659 10660 10659 10665 10670 10661 10652 10656 10670 10674 10669 10664 10659 10658 10657 10651 10647 10645 10644 10642 10638 10636 10635 10631 10628 10626 10626 10626 10627 10628 10629 10627 10625 10623 10622 10621 10622 10623 10623 10622 10622 10622 10622 10622 10621 10621 10621 10621 10622 10622 10621 10621 10620 10620 10619 10619 10619 10618 10618 10618 10618 10617 10617 10617 10617 10618 10618 10618
10678 10677 10675 10674 10671 10669 10667 10663 10662 10661 10659 10658 10656 10655 10652 10650 10649 10646 10647 10647 10646 10654 10656 10648 10645 10647 10654 10661 10658 10652 10649 10647 10645 10640 10637 10636 10635 10632 10627 10624 10622 10620 10618 10614 10613 10613 10613 10613 10616 10616 10615 10613 10612 10611 10611 10611 10611 10610 10610 10610 10609 10609 10608 10608 10607 10607 10608 10608 10609 10608 10608 10607 10607 10607 10607 10607 10606 10606 10606 10606 10605 10605 10605 10605 10606 10606
10669 10667 10665 10665 10663 10661 10657 10654 10653 10650 10648 10647 10645 10644 10641 10638 10637 10635 10635 10634 10633 10641 10641 10637 10637 10636 10642 10648 10643 10639 10638 10635 10632 10628 10624 10623 10621 10618 10615 10612 10610 10608 10607 10603 10600 10599 10598 10597 10599 10603 10604 10603 10600 10599 10599 10599 10598 10597 10597 10597 10597 10597 10597 10596 10595 10594 10594 10594 10594 10594 10594 10594 10594 10594 10594 10595 10594 10594 10594 10593 10593 10593 10593 10592 10593 10593
10659 10657 10656 10656 10654 10651 10648 10645 10642 10639 10638 10636 10633 10631 10628 10626 10624 10622 10623 10621 10621 10627 10627 10625 10626 10625 10630 10634 10629 10626 10625 10623 10621 10616 10611 10608 10604 10601 10599 10598 10597 10595 10593 10590 10587 10586 10585 10584 10584 10587 10590 10590 10588 10586 10586 10585 10585 10584 10583 10583 10583 10584 10584 10584 10583 10582 10581 10580 10579 10578 10578 10579 10579 10580 10580 10581 10581 10581 10581 10580 10580 10580 10579 10579 10579 10579
10651 10649 10647 10645 10643 10642 10639 10635 10632 10630 10628 10624 10621 10618 10615 10614 10609 10607 10609 10608 10608 10613 10613 10615 10615 10614 10617 10618 10615 10615 10613 10610 10607 10602 10598 10595 10589 10586 10584 10582 10581 10580 10578 10576 10574 10573 10572 10572 10570 10571 10573 10574 10573 10572 10572 10571 10570 10570 10568 10567 10568 10568 10569 10570 10570 10569 10568 10567 10566 10565 10565 10564 10564 10564 10564 10565 10565 10565 10566 10566 10566 10566 10565 10565 10565 10565
10641 10642 10639 10634 10632 10631 10628 10623 10622 10620 10616 10612 10609 10606 10604 10601 10594 10591 10595 10595 10594 10596 10600 10605 10603 10601 10603 10603 10602 10602 10600 10596 10592 10586 10582 10578 10576 10573 10569 10567 10565 10563 10562 10560 10560 10558 10558 10558 10557 10556 10556 10557 10558 10557 10556 10555 10555 10554 10553 10552 10552 10552 10553 10553 10553 10553 10553 10552 10551 10551 10550 10550 10550 10549 10549 10549 10549 10549 10549 10549 10550 10550 10550 10550 10550 10550
10631 10633 10632 10626 10622 10621 10618 10613 10611 10609 10604 10600 10598 10593 10591 10589 10582 10579 10581 10581 10578 10577 10586 10594 10590 10587 10588 10589 10590 10589 10584 10580 10576 10572 10567 10563 10561 10558 10554 10552 10549 10547 10546 10544 10544 10543 10542 10542 10542 10541 10539 10539 10541 10541 10541 10539 10538 10537 10537 10536 10536 10535 10535 10536 10536 10537 10536 10536 10535 10535 10534 10534 10534 10533 10533 10533 10533 10533 10533 10532 10533 10533 10533 10534 10534 10534
10618 10621 10622 10620 10614 10612 10610 10603 10599 10597 10592 10588 10585 10581 10578 10575 10573 10569 10566 10567 10565 10560 10569 10580 10578 10575 10574 10575 10578 10573 10566 10564 10560 10555 10552 10549 10545 10542 10538 10536 10533 10531 10529 10528 10528 10526 10525 10524 10523 10523 10523 10523 10524 10525 10525 10524 10522 10521 10519 10519 10519 10519 10518 10518 10518 10519 10519 10519 10518 10518 10518 10517 10516 10516 10516 10516 10515 10515 10516 10515 10516 10516 10516 10517 10517 10517
10603 10606 10610 10611 10605 10602 10601 10595 10587 10584 10581 10576 10572 10569 10566 10563 10562 10558 10553 10554 10554 10548 10553 10562 10564 10565 10563 10562 10563 10556 10549 10548 10544 10540 10537 10533 10530 10527 10524 10522 10519 10516 10513 10511 10510 10509 10508 10506 10504 10504 10504 10505 10506 10507 10507 10507 10506 10504 10502 10501 10501 10500 10500 10500 10500 10500 10500 10500 10500 10500 10500 10499 10499 10498 10497 10497 10497 10496 10497 10497 10497 10498 10499 10499 10500 10500
10589 10590 10593 10598 10594 10589 10589 10586 10577 10569 10566 10564 10559 10556 10553 10550 10549 10548 10542 10543 10544 10539 10539 10544 10549 10554 10554 10548 10545 10539 10533 10531 10528 10523 10519 10515 10513 10511 10509 10506 10504 10501 10499 10496 10493 10491 10489 10488 10486 10486 10486 10487 10487 10488 10489 10489 10488 10487 10485 10483 10482 10480 10480 10479 10479 10480 10480 10481 10480 10480 10480 10480 10480 10480 10480 10479 10479 10478 10478 10478 10479 10479 10480 10480 10481 10481
10576 10574 10578 10584 10580 10574 10573 10572 10565 10555 10550 10549 10546 10542 10539 10537 10536 10536 10534 10535 10531 10525 10524 10525 10529 10538 10542 10535 10528 10521 10515 10513 10510 10506 10501 10497 10495 10493 10490 10489 10487 10484 10482 10479 10476 10474 10471 10470 10469 10468 10468 10468 10468 10468 10468 10468 10468 10467 10466 10464 10463 10461 10460 10459 10459 10459 10459 10460 10460 10460 10460 10460 10461 10461 10461 10461 10460 10460 10460 10460 10460 10460 10460 10461 10461 10462
10561 10558 10560 10566 10565 10560 10558 10554 10548 10540 10535 10533 10532 10529 10526 10524 10522 10520 10523 10525 10517 10508 10508 10506 10505 10515 10523 10520 10512 10505 10499 10495 10492 10488 10485 10481 10478 10475 10473 10471 10469 10467 10465 10462 10460 10457 10455 10454 10451 10450 10449 10449 10449 10448 10447 10447 10446 10446 10445 10445 10444 10442 10441 10439 10439 10439 10439 10439 10439 10440 10440 10440 10440 10441 10441 10441 10441 10440 10440 10440 10440 10441 10441 10441 10442 10442
10548 10543 10542 10547 10550 10549 10545 10540 10535 10529 10525 10522 10519 10518 10517 10514 10511 10507 10508 10512 10506 10495 10493 10490 10484 10491 10502 10501 10494 10489 10484 10479 10474 10471 10468 10465 10463 10460 10457 10454 10452 10450 10448 10446 10444 10442 10439 10437 10434 10432 10431 10429 10428 10427 10426 10426 10425 10425 10425 10424 10423 10422 10420 10419 10418 10417 10417 10418 10418 10418 10418 10418 10419 10419 10420 10420 10420 10420 10420 10420 10420 10421 10421 10421 10421 10422
10536 10531 10528 10532 10538 10541 10538 10531 10525 10518 10515 10511 10507 10507 10507 10503 10501 10496 10492 10495 10492 10484 10482 10477 10467 10471 10482 10481 10474 10471 10468 10462 10456 10453 10451 10449 10447 10444 10441 10438 10435 10433 10431 10429 10427 10424 10421 10419 10417 10415 10413 10411 10410 10408 10406 10405 10404 10404 10404 10403 10402 10401 10400 10398 10397 10397 10396 10395 10395 10396 10396 10396 10396 10396 10397 10398 10398 10399 10399 10399 10400 10400 10401 10401 10401 10401
10524 10519 10517 10520 10525 10531 10531 10526 10516 10506 10501 10497 10494 10494 10493 10491 10488 10483 10479 10478 10473 10471 10473 10464 10453 10458 10465 10461 10456 10454 10449 10444 10439 10437 10436 10434 10431 10428 10424 10421 10419 10416 10414 10412 10409 10406 10403 10401 10400 10398 10397 10396 10393 10391 10389 10386 10385 10383 10383 10382 10381 10379 10378 10377 10376 10375 10374 10373 10372 10372 10373 10373 10373 10373 10373 10374 10375 10376 10377 10377 10378 10379 10380 10380 10381 10381
10511 10505 10505 10506 10508 10513 10519 10517 10506 10494 10487 10484 10482 10481 10479 10477 10473 10468 10466 10460 10453 10455 10457 10446 10441 10449 10448 10440 10439 10437 10429 10424 10422 10420 10420 10419 10416 10412 10408 10405 10402 10399 10397 10394 10390 10388 10385 10383 10382 10381 10380 10378 10375 10373 10371 10369 10367 10365 10363 10361 10360 10358 10357 10355 10354 10353 10352 10352 10351 10350 10350 10350 10350 10350 10350 10351 10352 10353 10354 10355 10356 10357 10358 10359 10359 10359
10498 10494 10493 10491 10488 10492 10500 10500 10491 10482 10475 10470 10470 10470 10467 10464 10460 10454 10450 10444 10437 10435 10432 10428 10431 10432 10427 10423 10423 10417 10408 10404 10403 10402 10401 10400 10398 10396 10393 10389 10386 10384 10381 10376 10372 10369 10366 10363 10362 10362 10360 10359 10357 10355 10354 10352 10349 10347 10344 10342 10340 10339 10337 10335 10334 10332 10331 10330 10330 10329 10329 10328 10328 10328 10328 10329 10329 10330 10331 10332 10333 10334 10334 10335 10336 10336
10484 10482 10481 10478 10473 10475 10479 10479 10474 10467 10461 10458 10457 10458 10457 10454 10449 10442 10436 10429 10422 10412 10408 10416 10416 10405 10405 10412 10407 10394 10384 10380 10381 10381 10381 10380 10379 10377 10374 10370 10368 10366 10362 10358 10354 10351 10347 10344 10342 10341 10340 10339 10337 10336 10334 10333 10331 10328 10325 10323 10321 10319 10318 10316 10315 10313 10312 10311 10310 10309 10308 10307 10307 10306 10306 10306 10306 10307 10307 10308 10309 10310 10310 10310 10311 10311
10468 10467 10468 10463 10457 10459 10460 10456 10453 10448 10445 10445 10445 10446 10448 10445 10440 10432 10423 10415 10406 10393 10391 10404 10400 10384 10388 10398 10391 10376 10365 10360 10361 10362 10361 10361 10360 10357 10354 10351 10348 10346 10342 10339 10335 10332 10328 10325 10322 10320 10319 10318 10317 10316 10315 10313 10311 10309 10306 10303 10301 10301 10299 10299 10298 10296 10294 10293 10290 10288 10287 10286 10285 10285 10284 10284 10283 10283 10283 10284 10284 10285 10286 10286 10286 10287
10453 10453 10454 10446 10441 10444 10442 10435 10432 10429 10426 10428 10431 10434 10436 10436 10430 10419 10407 10400 10392 10378 10377 10387 10383 10371 10374 10378 10370 10360 10352 10346 10345 10343 10343 10343 10341 10338 10335 10332 10329 10326 10323 10319 10316 10312 10309 10306 10303 10301 10300 10298 10296 10294 10294 10292 10291 10289 10287 10285 10283 10282 10281 10281 10280 10278 10276 10274 10271 10269 10267 10266 10265 10264 10263 10262 10262 10261 10261 10261 10261 10262 10262 10263 10263 10264
10438 10437 10436 10430 10426 10426 10424 10418 10413 10410 10409 10413 10417 10421 10423 10423 10415 10399 10389 10387 10379 10367 10365 10366 10358 10355 10361 10357 10347 10341 10339 10336 10331 10326 10325 10323 10320 10318 10316 10312 10309 10306 10302 10300 10296 10292 10289 10286 10284 10281 10279 10277 10276 10274 10273 10272 10271 10269 10267 10266 10265 10264 10263 10262 10261 10259 10257 10254 10252 10250 10248 10247 10245 10244 10243 10242 10242 10242 10241 10241 10241 10241 10241 10241 10241 10242
10423 10420 10416 10412 10408 10409 10410 10402 10392 10390 10393 10397 10405 10412 10412 10402 10389 10380 10376 10375 10368 10358 10354 10347 10336 10338 10343 10334 10325 10324 10324 10321 10317 10312 10309 10305 10302 10299 10296 10293 10292 10288 10284 10281 10276 10272 10269 10266 10264 10261 10260 10259 10257 10256 10255 10253 10250 10248 10247 10247 10246 10244 10244 10243 10242 10240 10238 10235 10233 10231 10230 10228 10227 10226 10225 10223 10222 10222 10222 10221 10221 10221 10221 10220 10220 10220
10408 10403 10399 10394 10388 10394 10399 10385 10373 10375 10374 10379 10396 10403 10391 10374 10366 10366 10364 10359 10352 10345 10339 10331 10324 10323 10319 10310 10308 10309 10306 10303 10300 10297 10293 10289 10285 10281 10278 10276 10274 10270 10266 10262 10258 10255 10251 10249 10247 10245 10244 10242 10240 10239 10236 10234 10232 10230 10228 10227 10226 10224 10223 10223 10222 10221 10219 10217 10215 10213 10212 10211 10211 10209 10207 10204 10203 10203 10203 10202 10202 10202 10201 10201 10201 10201
10392 10387 10384 10376 10368 10376 10383 10369 10359 10358 10358 10371 10388 10382 10364 10355 10353 10351 10346 10341 10336 10328 10321 10316 10312 10305 10297 10293 10293 10291 10287 10285 10283 10280 10277 10272 10267 10264 10263 10260 10255 10249 10245 10242 10240 10238 10235 10233 10232 10230 10229 10227 10224 10221 10219 10217 10215 10213 10211 10210 10208 10207 10206 10204 10202 10201 10199 10197 10195 10194 10194 10193 10193 10192 10189 10187 10185 10185 10185 10184 10184 10183 10182 10182 10183 10183
10377 10372 10368 10360 10353 10357 10363 10354 10342 10340 10349 10365 10370 10355 10343 10343 10338 10329 10325 10325 10321 10313 10304 10298 10291 10284 10280 10278 10276 10272 10270 10270 10267 10265 10262 10255 10249 10248 10246 10243 10236 10231 10227 10224 10222 10220 10218 10217 10216 10215 10214 10210 10207 10204 10202 10202 10201 10199 10197 10195 10193 10191 10189 10186 10184 10182 10180 10178 10176 10174 10174 10174 10174 10173 10171 10169 10168 10168 10168 10167 10166 10165 10163 10163 10165 10165
10362 10357 10350 10345 10339 10338 10342 10337 10324 10325 10340 10349 10345 10337 10330 10324 10317 10309 10307 10308 10306 10298 10289 10280 10271 10266 10261 10259 10258 10257 10256 10256 10254 10250 10244 10237 10233 10233 10230 10225 10219 10214 10211 10208 10205 10204 10202 10201 10201 10200 10197 10193 10190 10189 10188 10189 10187 10184 10182 10181 10178 10176 10173 10170 10168 10165 10163 10161 10158 10156 10155 10155 10154 10152 10151 10151 10150 10150 10149 10148 10147 10147 10146 10146 10147 10147
10345 10340 10334 10330 10324 10320 10322 10320 10312 10312 10323 10328 10326 10321 10311 10303 10298 10292 10288 10291 10290 10283 10274 10263 10254 10249 10245 10242 10243 10243 10241 10240 10239 10235 10226 10218 10216 10216 10213 10209 10202 10197 10194 10191 10190 10189 10186 10184 10183 10181 10179 10176 10175 10174 10174 10173 10172 10169 10167 10165 10162 10160 10157 10155 10153 10150 10147 10144 10141 10139 10137 10136 10135 10134 10133 10133 10132 10131 10130 10129 10129 10128 10128 10129 10129 10127
10327 10322 10318 10312 10307 10304 10302 10303 10300 10297 10303 10311 10310 10299 10288 10284 10281 10273 10267 10271 10275 10270 10259 10245 10236 10235 10234 10232 10231 10230 10227 10226 10225 10219 10208 10201 10201 10200 10196 10192 10187 10182 10179 10176 10174 10173 10169 10167 10165 10162 10160 10160 10160 10159 10158 10156 10155 10153 10151 10149 10147 10145 10142 10140 10137 10135 10132 10129 10126 10124 10121 10119 10118 10118 10117 10116 10114 10113 10112 10111 10111 10111 10109 10110 10112 10111
10310 10305 10300 10292 10289 10289 10284 10282 10283 10280 10283 10293 10289 10277 10269 10266 10262 10252 10244 10251 10259 10253 10240 10230 10226 10224 10221 10219 10218 10216 10213 10213 10212 10205 10193 10187 10187 10183 10179 10176 10172 10168 10166 10162 10158 10155 10153 10151 10149 10147 10146 10145 10145 10144 10142 10139 10137 10136 10134 10132 10131 10129 10126 10124 10122 10119 10117 10114 10111 10108 10106 10104 10104 10104 10102 10100 10097 10097 10096 10095 10094 10093 10091 10092 10096 10097
10293 10288 10283 10275 10274 10275 10267 10262 10263 10262 10265 10270 10264 10255 10252 10248 10242 10232 10225 10232 10241 10233 10221 10220 10219 10212 10207 10204 10203 10202 10200 10199 10198 10191 10181 10175 10172 10166 10163 10161 10158 10154 10151 10147 10142 10139 10137 10135 10134 10134 10133 10132 10130 10128 10126 10123 10121 10119 10117 10116 10114 10112 10110 10108 10106 10103 10101 10098 10095 10093 10092 10091 10090 10089 10087 10085 10083 10082 10081 10079 10077 10076 10076 10077 10079 10081
10277 10272 10266 10260 10259 10259 10253 10246 10244 10244 10248 10248 10238 10232 10230 10227 10222 10215 10209 10213 10219 10215 10211 10212 10205 10198 10195 10192 10189 10189 10187 10184 10182 10177 10168 10161 10158 10154 10150 10147 10143 10139 10136 10133 10130 10127 10124 10121 10119 10119 10119 10117 10115 10112 10110 10108 10106 10103 10102 10100 10098 10096 10095 10092 10090 10087 10084 10081 10079 10078 10078 10077 10076 10074 10072 10071 10070 10067 10064 10063 10063 10062 10062 10062 10062 10063
10264 10256 10249 10247 10248 10246 10238 10230 10228 10233 10238 10230 10214 10209 10211 10208 10202 10198 10195 10196 10198 10200 10202 10199 10191 10186 10184 10179 10176 10176 10174 10170 10165 10161 10154 10147 10144 10141 10137 10132 10129 10126 10123 10121 10118 10115 10111 10108 10106 10105 10103 10101 10099 10096 10094 10091 10090 10088 10087 10085 10083 10082 10080 10077 10075 10072 10068 10066 10064 10064 10063 10062 10060 10059 10057 10056 10055 10053 10050 10048 10048 10049 10047 10047 10047 10048
10246 10238 10236 10237 10235 10229 10222 10216 10214 10220 10224 10212 10195 10192 10194 10189 10184 10183 10183 10182 10184 10186 10185 10182 10180 10177 10171 10165 10161 10158 10157 10154 10148 10143 10139 10134 10129 10126 10122 10118 10116 10113 10111 10108 10104 10101 10097 10095 10092 10090 10089 10087 10083 10080 10078 10076 10074 10073 10071 10070 10069 10067 10064 10062 10060 10057 10054 10052 10051 10050 10049 10047 10045 10044 10043 10040 10039 10039 10037 10034 10033 10034 10034 10033 10034 10034
10227 10223 10224 10225 10219 10210 10208 10207 10202 10201 10205 10197 10182 10176 10174 10171 10171 10172 10171 10171 10172 10172 10170 10168 10168 10166 10159 10154 10147 10141 10140 10139 10132 10128 10124 10119 10115 10112 10109 10107 10104 10101 10097 10094 10091 10087 10083 10079 10077 10075 10074 10072 10069 10066 10064 10061 10060 10059 10057 10055 10054 10051 10049 10047 10044 10042 10039 10038 10037 10035 10033 10032 10030 10029 10027 10025 10024 10024 10022 10020 10018 10019 10019 10020 10020 10020
10212 10209 10208 10209 10206 10196 10194 10195 10186 10182 10187 10182 10167 10160 10156 10154 10157 10159 10159 10159 10159 10159 10158 10156 10154 10151 10146 10141 10135 10128 10125 10122 10116 10111 10107 10102 10099 10097 10095 10094 10092 10087 10084 10081 10077 10074 10070 10066 10064 10061 10059 10058 10055 10053 10051 10049 10047 10046 10043 10041 10040 10037 10035 10033 10029 10027 10025 10024 10023 10021 10018 10017 10015 10013 10011 10010 10009 10008 10007 10006 10005 10005 10005 10005 10005 10005
10197 10196 10192 10196 10197 10185 10179 10179 10170 10163 10168 10164 10153 10148 10143 10139 10143 10146 10146 10147 10147 10146 10145 10142 10139 10137 10133 10128 10124 10119 10113 10109 10104 10099 10093 10088 10083 10080 10079 10078 10076 10073 10070 10066 10063 10060 10057 10054 10051 10048 10045 10043 10041 10039 10038 10036 10035 10033 10030 10028 10026 10023 10021 10018 10015 10014 10012 10010 10008 10006 10005 10003 10000 9997 9996 9994 9993 9993 9992 9992 9992 9991 9990 9990 9989 9989
10184 10182 10178 10183 10186 10174 10164 10163 10153 10144 10148 10148 10140 10136 10130 10125 10130 10134 10132 10133 10133 10131 10128 10124 10122 10121 10119 10115 10112 10107 10102 10099 10094 10089 10084 10078 10072 10068 10065 10063 10061 10059 10056 10052 10049 10046 10043 10040 10038 10034 10031 10029 10026 10024 10023 10022 10021 10020 10017 10014 10012 10009 10007 10004 10002 10000 9998 9996 9995 9993 9992 9990 9986 9982 9981 9979 9978 9979 9979 9979 9979 9977 9976 9975 9974 9973
10172 10169 10166 10169 10171 10159 10149 10149 10140 10130 10130 10131 10127 10123 10117 10114 10118 10118 10115 10116 10115 10112 10110 10106 10102 10101 10101 10099 10096 10092 10088 10085 10080 10076 10072 10067 10063 10059 10055 10051 10049 10047 10044 10041 10037 10033 10030 10027 10025 10021 10018 10015 10012 10010 10009 10007 10007 10006 10004 10001 9998 9995 9993 9990 9988 9986 9984 9981 9981 9981 9979 9976 9972 9969 9967 9965 9964 9965 9964 9964 9964 9963 9962 9960 9960 9958
10161 10159 10157 10153 10149 10141 10135 10136 10128 10115 10113 10119 10119 10114 10109 10105 10104 10103 10100 10099 10097 10094 10093 10090 10086 10084 10083 10082 10079 10075 10072 10068 10063 10060 10057 10053 10051 10048 10044 10040 10037 10034 10031 10029 10025 10021 10018 10015 10012 10008 10005 10001 9999 9997 9995 9993 9992 9992 9991 9987 9984 9982 9980 9977 9975 9973 9970 9968 9968 9967 9965 9961 9959 9957 9956 9953 9951 9951 9950 9949 9948 9947 9946 9945 9945 9944
10148 10148 10146 10134 10127 10127 10126 10121 10109 10097 10100 10111 10112 10105 10101 10098 10094 10090 10087 10084 10081 10079 10077 10074 10071 10068 10066 10065 10063 10059 10056 10051 10047 10044 10042 10039 10037 10035 10031 10028 10025 10021 10019 10016 10012 10009 10007 10003 9999 9995 9992 9989 9987 9985 9983 9980 9978 9978 9977 9973 9970 9968 9966 9964 9962 9960 9957 9956 9956 9954 9951 9948 9947 9946 9945 9942 9939 9938 9936 9935 9933 9932 9931 9930 9929 9929
10134 10135 10130 10112 10106 10113 10115 10107 10092 10083 10090 10102 10102 10095 10094 10091 10083 10077 10074 10072 10070 10068 10064 10059 10056 10053 10051 10050 10047 10043 10040 10036 10032 10029 10027 10025 10024 10021 10018 10015 10012 10009 10006 10002 9999 9997 9994 9990 9986 9982 9978 9976 9975 9974 9971 9968 9966 9965 9964 9960 9957 9955 9953 9952 9950 9947 9945 9944 9944 9941 9938 9936 9935 9934 9933 9931 9929 9926 9924 9921 9919 9918 9918 9918 9916 9914
10123 10119 10110 10095 10090 10096 10099 10094 10082 10074 10079 10089 10090 10087 10084 10080 10072 10066 10063 10061 10059 10056 10050 10046 10044 10042 10039 10035 10031 10028 10025 10021 10018 10016 10014 10013 10011 10008 10005 10002 9999 9996 9993 9990 9987 9985 9981 9978 9974 9970 9967 9965 9963 9961 9959 9956 9955 9954 9952 9947 9944 9943 9941 9940 9939 9936 9933 9932 9931 9928 9926 9926 9925 9923 9921 9919 9918 9916 9914 9911 9906 9902 9902 9904 9905 9903